IRIDIUM 150 (43257 NORAD) Tracking and Keplerian Element Data

This shows tracking and keplerian element data for the satellite.

Feedback or suggestion? Click here.




ElementValue
Catalog43257
NameIRIDIUM 150
Epoch Orbit35872
Epoch Day34.79161503
Epoch Year2025
RAAN138.8367
Inclination86.4011
Eccentricity0.0002304
Argument of Perigee94.2349
Mean Anonmoly265.911
Mean Motion14.34218539
Decay Rate6.88E-06
L11 43257U 18030J 25034.79161503 .00000688 00000+0 23855-3 0 9996
L22 43257 86.4011 138.8367 0002304 94.2349 265.9110 14.34218539358728



Live tracking and technical data element details for IRIDIUM 150 (NORAD 43257). IRIDIUM 150 can be tracked NOW for your location showing map with azimuth and elevation plus other details from your city location.







IsCatalogInMostPopularTable: catalog: 43257, numindb: 654
Update: records affected: 1



GetName: 43257 IRIDIUM 150

Hit Count: updated at: Fri, 18 Jul 2025 17:35:39 GMT